• In Russia
  • List of Countries
  • For 7 days
  • Water Temperature
  • Satellite Maps
  • Weather Map
  • Weather Widgets
  • user-avatar
    Login

    Hourly Weather Sumgayit

    Today, 28 February, Tuesday

    Time Temperature Precipitation Wind Pressure Humidity
    00:00 +2°C° 0 mm 5 mps 744 mmHg 83%
    01:00 +3°C° 0 mm 4 mps 744 mmHg 83%
    02:00 +1°C° 0 mm 4 mps 744 mmHg 84%
    03:00 +2°C° 0 mm 3 mps 744 mmHg 85%
    04:00 +3°C° 0 mm 2 mps 744 mmHg 84%
    05:00 +3°C° 0 mm 2 mps 744 mmHg 84%
    06:00 +3°C° 0 mm 1 mps 744 mmHg 83%
    07:00 +5°C° 0 mm 1 mps 745 mmHg 75%
    08:00 +6°C° 0 mm 1 mps 745 mmHg 67%
    09:00 +8°C° 0 mm 1 mps 746 mmHg 59%
    10:00 +9°C° 0 mm 1 mps 746 mmHg 55%
    11:00 +10°C° 0 mm 1 mps 746 mmHg 50%
    12:00 +11°C° 0 mm 1 mps 746 mmHg 46%
    13:00 +11°C° 0 mm 1 mps 746 mmHg 46%
    14:00 +10°C° 0 mm 2 mps 746 mmHg 47%
    15:00 +10°C° 0 mm 2 mps 746 mmHg 47%
    16:00 +9°C° 0 mm 2 mps 746 mmHg 54%
    17:00 +8°C° 0 mm 2 mps 746 mmHg 61%
    18:00 +7°C° 0 mm 2 mps 746 mmHg 68%
    19:00 +6°C° 0 mm 2 mps 747 mmHg 71%
    20:00 +7°C° 0 mm 1 mps 747 mmHg 74%
    21:00 +6°C° 0 mm 1 mps 747 mmHg 78%
    22:00 +6°C° 0 mm 1 mps 747 mmHg 79%
    23:00 +6°C° 0 mm 1 mps 747 mmHg 80%

    Tomorrow, 1 March, Wednesday

    Time Temperature Precipitation Wind Pressure Humidity
    00:00 +5°C° 0 mm 1 mps 747 mmHg 80%
    01:00 +5°C° 0 mm 1 mps 747 mmHg 79%
    02:00 +5°C° 0 mm 1 mps 747 mmHg 78%
    03:00 +5°C° 0 mm 1 mps 747 mmHg 77%
    04:00 +5°C° 0 mm 1 mps 747 mmHg 75%
    05:00 +4°C° 0 mm 2 mps 747 mmHg 74%
    06:00 +4°C° 0 mm 2 mps 747 mmHg 72%
    07:00 +5°C° 0 mm 3 mps 747 mmHg 67%
    08:00 +7°C° 0 mm 3 mps 747 mmHg 62%
    09:00 +8°C° 0 mm 4 mps 747 mmHg 57%
    10:00 +10°C° 0 mm 4 mps 747 mmHg 55%
    11:00 +10°C° 0 mm 5 mps 747 mmHg 54%
    12:00 +11°C° 0 mm 6 mps 747 mmHg 52%
    13:00 +11°C° 0 mm 6 mps 746 mmHg 52%
    14:00 +13°C° 0 mm 6 mps 746 mmHg 52%
    15:00 +13°C° 0 mm 6 mps 745 mmHg 53%
    16:00 +10°C° 0 mm 6 mps 745 mmHg 59%
    17:00 +9°C° 0 mm 5 mps 745 mmHg 65%
    18:00 +8°C° 0 mm 5 mps 745 mmHg 70%
    19:00 +7°C° 0 mm 5 mps 745 mmHg 74%
    20:00 +7°C° 0 mm 5 mps 745 mmHg 77%
    21:00 +6°C° 0 mm 4 mps 745 mmHg 80%
    22:00 +6°C° 0 mm 4 mps 745 mmHg 80%
    23:00 +6°C° 0 mm 4 mps 744 mmHg 81%

    Day after tomorrow, 2 March, Thursday

    Time Temperature Precipitation Wind Pressure Humidity
    00:00 +5°C° 0 mm 4 mps 744 mmHg 82%
    01:00 +5°C° 0 mm 4 mps 744 mmHg 82%
    02:00 +5°C° 0 mm 3 mps 743 mmHg 82%
    03:00 +5°C° 0 mm 3 mps 743 mmHg 82%
    04:00 +5°C° 0 mm 3 mps 743 mmHg 82%
    05:00 +5°C° 0 mm 3 mps 743 mmHg 83%
    06:00 +4°C° 0 mm 3 mps 743 mmHg 83%
    07:00 +6°C° 0 mm 4 mps 743 mmHg 77%
    08:00 +7°C° 0 mm 4 mps 743 mmHg 71%
    09:00 +8°C° 0 mm 4 mps 743 mmHg 65%
    10:00 +11°C° 0 mm 4 mps 743 mmHg 61%
    11:00 +12°C° 0 mm 5 mps 743 mmHg 57%
    12:00 +13°C° 0 mm 5 mps 742 mmHg 52%
    13:00 +12°C° 0 mm 5 mps 742 mmHg 53%
    14:00 +11°C° 0 mm 6 mps 741 mmHg 53%
    15:00 +11°C° 0 mm 6 mps 741 mmHg 53%
    16:00 +10°C° 0 mm 5 mps 741 mmHg 59%
    17:00 +10°C° 0 mm 4 mps 741 mmHg 64%
    18:00 +9°C° 0 mm 3 mps 741 mmHg 69%
    19:00 +8°C° 0 mm 3 mps 741 mmHg 69%
    20:00 +8°C° 0 mm 2 mps 741 mmHg 69%
    21:00 +8°C° 0 mm 2 mps 741 mmHg 70%
    22:00 +7°C° 0 mm 2 mps 740 mmHg 68%
    23:00 +7°C° 0 mm 2 mps 740 mmHg 66%

    3 March, Friday

    Time Temperature Precipitation Wind Pressure Humidity
    00:00 +7°C° 0 mm 2 mps 740 mmHg 64%
    01:00 +7°C° 0 mm 2 mps 740 mmHg 64%
    02:00 +7°C° 0 mm 2 mps 739 mmHg 63%
    03:00 +7°C° 0 mm 2 mps 739 mmHg 63%
    04:00 +7°C° 0 mm 2 mps 739 mmHg 64%
    05:00 +7°C° 0 mm 2 mps 739 mmHg 64%
    06:00 +7°C° 0 mm 3 mps 739 mmHg 65%
    07:00 +8°C° 0 mm 3 mps 739 mmHg 62%
    08:00 +9°C° 0 mm 3 mps 740 mmHg 59%
    09:00 +10°C° 0 mm 3 mps 740 mmHg 56%
    10:00 +11°C° 0 mm 3 mps 740 mmHg 54%
    11:00 +12°C° 0 mm 4 mps 740 mmHg 51%
    12:00 +13°C° 0 mm 4 mps 740 mmHg 48%
    13:00 +13°C° 0 mm 4 mps 739 mmHg 48%
    14:00 +14°C° 0 mm 4 mps 739 mmHg 48%
    15:00 +14°C° 0 mm 5 mps 739 mmHg 49%
    16:00 +12°C° 0 mm 4 mps 739 mmHg 54%
    17:00 +11°C° 0 mm 4 mps 739 mmHg 60%
    18:00 +10°C° 0 mm 3 mps 739 mmHg 66%
    19:00 +9°C° 0 mm 3 mps 740 mmHg 68%
    20:00 +9°C° 0 mm 2 mps 740 mmHg 70%
    21:00 +8°C° 0 mm 2 mps 740 mmHg 73%
    22:00 +9°C° 0 mm 1 mps 740 mmHg 73%
    23:00 +9°C° 0 mm 1 mps 740 mmHg 74%

    4 March, Saturday

    Time Temperature Precipitation Wind Pressure Humidity
    00:00 +9°C° 0 mm 1 mps 740 mmHg 75%
    01:00 +8°C° 0 mm 1 mps 740 mmHg 76%
    02:00 +8°C° 0 mm 1 mps 740 mmHg 77%
    03:00 +7°C° 0 mm 0 mps 740 mmHg 77%
    04:00 +8°C° 0 mm 1 mps 741 mmHg 76%
    05:00 +8°C° 0 mm 1 mps 741 mmHg 75%
    06:00 +8°C° 0 mm 1 mps 742 mmHg 74%
    07:00 +9°C° 0 mm 2 mps 742 mmHg 67%
    08:00 +10°C° 0 mm 3 mps 743 mmHg 61%
    09:00 +11°C° 0 mm 4 mps 743 mmHg 54%
    10:00 +12°C° 0 mm 5 mps 744 mmHg 53%
    11:00 +13°C° 0 mm 6 mps 744 mmHg 52%
    12:00 +12°C° 0 mm 7 mps 744 mmHg 51%
    13:00 +12°C° 0 mm 7 mps 744 mmHg 52%
    14:00 +13°C° 0 mm 6 mps 744 mmHg 54%
    15:00 +11°C° 0 mm 6 mps 744 mmHg 56%
    16:00 +10°C° 0 mm 6 mps 744 mmHg 61%
    17:00 +9°C° 0 mm 6 mps 744 mmHg 66%
    18:00 +8°C° 0 mm 6 mps 745 mmHg 71%
    19:00 +8°C° 0 mm 6 mps 745 mmHg 73%
    20:00 +8°C° 0 mm 6 mps 745 mmHg 74%
    21:00 +8°C° 0 mm 6 mps 746 mmHg 76%
    22:00 +7°C° 0 mm 6 mps 746 mmHg 78%
    23:00 +7°C° 0 mm 5 mps 746 mmHg 80%

    5 March, Sunday

    Time Temperature Precipitation Wind Pressure Humidity
    00:00 +6°C° 0 mm 5 mps 746 mmHg 82%
    01:00 +6°C° 0 mm 5 mps 746 mmHg 83%
    02:00 +6°C° 0 mm 4 mps 746 mmHg 85%
    03:00 +6°C° 0 mm 4 mps 746 mmHg 86%
    04:00 +5°C° 0 mm 4 mps 746 mmHg 87%
    05:00 +5°C° 0 mm 4 mps 747 mmHg 87%
    06:00 +5°C° 0 mm 4 mps 747 mmHg 87%
    07:00 +6°C° 0 mm 5 mps 747 mmHg 83%
    08:00 +7°C° 0 mm 5 mps 748 mmHg 78%
    09:00 +8°C° 0 mm 5 mps 748 mmHg 73%
    10:00 +8°C° 0 mm 5 mps 748 mmHg 70%
    11:00 +9°C° 0 mm 5 mps 748 mmHg 67%
    12:00 +9°C° 0 mm 5 mps 748 mmHg 64%
    13:00 +9°C° 0 mm 6 mps 748 mmHg 63%
    14:00 +9°C° 0 mm 6 mps 748 mmHg 62%
    15:00 +9°C° 0 mm 6 mps 748 mmHg 62%
    16:00 +9°C° 0 mm 6 mps 748 mmHg 65%
    17:00 +8°C° 0 mm 6 mps 748 mmHg 68%
    18:00 +7°C° 0 mm 6 mps 748 mmHg 72%
    19:00 +6°C° 0 mm 5 mps 748 mmHg 74%
    20:00 +6°C° 0 mm 5 mps 748 mmHg 76%
    21:00 +5°C° 0 mm 5 mps 749 mmHg 78%
    22:00 +5°C° 0 mm 4 mps 748 mmHg 80%
    23:00 +5°C° 0 mm 4 mps 748 mmHg 81%
    Show more